User: anonymous   Login
Location: La Comballaz
(46.3780°N, 7.0817°E)
Time: 05:59:38
(UTC+00:00)
Language:

ISS - Orbit

View from above orbital plane
View from above orbital plane
View from above satellite
View from above satellite

Ground track
Ground track

The orbit data is extracted from the following two-line orbital elements,

1 25544U 98067A   22341.06629889  .00009400  00000-0  17378-3 0  9992
2 25544  51.6441 200.1642 0004360 134.0139  20.3200 15.49781774371991
Epoch (UTC): 07 December 2022 01:35:28
Eccentricity: 0.0004360
inclination: 51.6441°
perigee height: 414 km
apogee height: 420 km
right ascension of ascending node: 200.1642°
argument of perigee: 134.0139°
revolutions per day: 15.49781774
mean anomaly at epoch: 20.3200°
orbit number at epoch: 37199

The dashed part of the orbit path shows where the satellite is in the earth's shadow,  

DLR